Regional Weather Roundup
Issued by NWS

Home | Current Version | Previous Version | Graphics & Text | Print | Product List | Glossary On
Versions: 1 2 3 4 5 6 7 8 9 10 11 12 13 14 15 16 17 18 19 20 21 22 23 24 25 26 27 28 29 30 31 32 33 34 35 36 37 38 39 40 41 42 43 44 45 46 47 48 49 50
000
ASUS45 KBOI 280810
RWRID
WEATHER ROUNDUP FOR IDAHO
NATIONAL WEATHER SERVICE BOISE ID
100 AM MST WED JAN 28 2015

NOTE: "FAIR" INDICATES FEW OR NO CLOUDS BELOW 12000 FEET
WITH NO SIGNIFICANT WEATHER AND/OR OBSTRUCTIONS TO VISIBILITY

IDZ012-014-280900-
SOUTHWEST IDAHO


CITY           SKY/WX    TMP DP  RH WIND       PRES   REMARKS
BOISE          CLOUDY    36  35  96 CALM      30.21R FOG
CALDWELL       MOCLDY    36  30  80 CALM      30.24R
MOUNTAIN HOME  FOG       36  36 100 W8        30.20R VSB 1   WCI  29
$$

IDZ016-017-280900-
SOUTHCENTRAL IDAHO


CITY           SKY/WX    TMP DP  RH WIND       PRES   REMARKS
BURLEY         CLOUDY    41  38  89 W8        30.15S
JEROME         LGT RAIN  37  36  96 W7        30.17R VSB 1/4 WCI  32
TWIN FALLS     LGT RAIN  42  37  82 SW10      30.17R
$$

IDZ019>023-280900-
SOUTHEAST IDAHO


CITY           SKY/WX    TMP DP  RH WIND       PRES   REMARKS
IDAHO FALLS    LGT RAIN  36  34  92 S7        30.14R FOG     WCI  30
POCATELLO      LGT RAIN  40  40 100 SW13      30.16R WCI  32
REXBURG        LGT RAIN  39  34  82 CALM      30.12S
$$

IDZ006-010-011-018-031-032-280900-
CENTRAL IDAHO MOUNTAINS


CITY           SKY/WX    TMP DP  RH WIND       PRES   REMARKS
MCCALL         CLOUDY    32  30  92 CALM      30.15R
HAILEY         CLOUDY    34  34 100 NW3       30.15S
STANLEY          N/A     34  32  92 CALM      30.15S
SALMON         CLOUDY   N/A N/A N/A CALM      30.15S
CHALLIS        LGT RAIN  33  32  96 CALM      30.13S
$$

IDZ002-004-006-007-026-280900-
NORTHERN IDAHO


CITY           SKY/WX    TMP DP  RH WIND       PRES   REMARKS
LEWISTON       PTCLDY    39  36  89 SW5       30.18R
LOWELL           N/A     35  33  92 CALM      30.21R
COEUR D`ALENE  CLOUDY    36  34  93 SW8       30.15R WCI  29
MULLAN PASS    CLEAR     31  26  82 W7        30.07R WCI  24
$$


USA.gov is the U.S. government's official web portal to all federal, state and local government web resources and services.